Home   Weather   Kalispell   Past weeks
Flag for USA

Past Weather in Kalispell, Montana, USA — Yesterday and Last 2 Weeks

Now
48 °F

Sunny.


Feels Like: 47 °F
Forecast: 51 / 22 °F
Wind: 3 mph from South

Location: Kalispell - Glacier Park International

Current Time: Mar 20, 2019 at 3:49:45 pm

Latest Report: Mar 20, 2019 at 2:55 pm


Visibility: 10 mi

Pressure: 30.20 "Hg (27.07 "Hg at 902m altitude)

Humidity: 43%

Dew Point: 26 °F

Location of KalispellLocation

Past Weather in Kalispell — Graph

°F

Kalispell Temperature Yesterday

Maximum temperature yesterday: 43 °F (at 12:55 pm)
Minimum temperature yesterday: 15 °F (at 6:55 am)
Average temperature yesterday: 30 °F

High & Low Weather Summary for the Past Weeks

 TemperatureHumidityPressure
High47 °F (Mar 20, 1:55 pm)96% (Mar 13, 2:55 am)30.48 "Hg (Mar 13, 2:55 am)
Low-6 °F (Mar 10, 7:55 am)41% (Mar 7, 2:55 pm)29.59 "Hg (Mar 12, 4:39 pm)
Average26 °F77%30.14 "Hg
* Reported Mar 5 12:55 pm — Mar 20 1:55 pm, Kalispell. Weather by CustomWeather, © 2019

Note: Actual official high and low records may vary slightly from our data, if they occured in-between our weather recording intervals... More about our weather records

Advertising

Kalispell Weather History for the Previous 24 Hours

Scroll right to see more
 ConditionsComfort  
Time TempWeatherWind HumidityBarometerVisibility
1:55 pm
Wed, Mar 20
47 °FSunny.No wind46%30.24 "Hg10 mi
12:55 pm43 °FSunny.No wind53%30.27 "Hg10 mi
11:55 am40 °FSunny.No wind60%30.29 "Hg10 mi
10:55 am40 °FSunny.3 mph60%30.30 "Hg10 mi
9:55 am32 °FSunny.No wind75%30.32 "Hg10 mi
8:55 am24 °FSunny.No wind84%30.34 "Hg10 mi
7:55 am18 °FSunny.No wind92%30.34 "Hg10 mi
6:55 am20 °FClear.No wind89%30.32 "Hg10 mi
5:55 am18 °FClear.No wind92%30.33 "Hg10 mi
4:55 am19 °FClear.No wind88%30.33 "Hg10 mi
3:55 am21 °FClear.No wind88%30.33 "Hg8 mi
2:55 am21 °FClear.No wind88%30.34 "Hg10 mi
1:55 am22 °FClear.No wind89%30.33 "Hg10 mi
12:55 am24 °FClear.5 mph88%30.32 "Hg7 mi
11:55 pm
Tue, Mar 19
24 °FClear.No wind88%30.34 "Hg10 mi
10:55 pm27 °FClear.No wind81%30.32 "Hg10 mi
9:55 pm29 °FClear.3 mph82%30.34 "Hg10 mi
8:55 pm31 °FClear.No wind79%30.34 "Hg10 mi
7:55 pm38 °FClear.No wind60%30.32 "Hg10 mi
6:55 pm43 °FSunny.No wind49%30.33 "Hg10 mi
5:55 pm41 °FSunny.5 mph58%30.33 "Hg10 mi
4:55 pm42 °FSunny.8 mph57%30.34 "Hg10 mi
3:55 pm43 °FSunny.5 mph53%30.34 "Hg10 mi
Weather by CustomWeather, © 2019

See weather overview